#timestamp,LO_Frequency,Hit,StdDev 
1551402015.8,286047002.3,N
1551402035.6,286047002.4,N
1551402055.4,286046999.7,N
1551402075.3,286047000.9,N
1551402095.1,286047001.5,N
1551402115.8,286047007.1,Y
1551402135.7,286047003.1,P
1551402155.5,286047002.9,P
1551402175.4,286047005.5,P
1551402195.2,286047003.7,N
1551402215.0,286047001.3,N
1551402215.9,286047001.3,N
1551402235.8,286047003.8,N
1551402255.6,286047002.9,N
1551402275.4,286047003.0,N
1551402295.3,286047004.9,Y
1551402315.1,286047001.3,P
1551402335.9,286047001.8,N
1551402355.7,286047004.4,P
1551402375.5,286047004.1,Y
1551402395.4,286047002.8,P
1551402415.2,286047000.4,P
1551402435.1,286047002.7,N
1551402436.0,286047002.7,N
1551402455.8,286047001.0,N
1551402475.6,286046998.3,N
1551402495.5,286046998.9,N
1551402515.3,286046998.5,N
1551402535.1,286047001.0,N
1551402555.9,286046998.5,N
1551402575.7,286046999.9,N
1551402595.6,286047000.5,N
1551402615.4,286047002.1,N
1551402635.2,286047000.2,N
1551402655.1,286047000.4,N
1551402656.0,286047000.4,N
1551402675.8,286046999.7,N
1551402695.7,286046999.8,N
1551402715.5,286046998.4,N
1551402735.3,286046999.0,N
1551402755.2,286046998.6,N
1551402775.9,286047000.7,N
1551402795.7,286047002.6,N
1551402815.6,286047002.1,N
1551402835.4,286047001.9,N
1551402855.3,286047003.9,N
1551402875.1,286047003.9,N
1551402876.0,286047003.9,N
1551402895.8,286047006.0,Y
1551402915.7,286047005.3,P
1551402935.5,286047007.5,P
1551402955.3,286047005.0,N
1551402975.2,286047005.4,N
1551402995.0,286047003.3,N
1551402995.9,286047003.3,N
1551403015.8,286047003.2,N
1551403035.6,286047005.6,N
1551403055.4,286047006.5,Y
1551403075.3,286047001.5,P
1551403095.1,286046999.9,N
1551403115.9,286046999.9,N
1551403135.7,286047000.0,N
1551403155.5,286047002.8,N
1551403175.4,286047001.1,N
1551403195.2,286047000.3,N
1551403215.0,286047000.6,N
1551403215.9,286047000.6,N
1551403235.8,286047001.8,N
1551403255.6,286047003.6,N
1551403275.5,286047003.1,N
1551403295.3,286047004.3,N
1551403315.1,286047004.0,N
1551403335.9,286047002.5,N
1551403355.7,286047000.5,N
1551403375.5,286046999.0,N
1551403395.4,286046999.1,N
1551403415.2,286046999.3,N
1551403435.1,286046999.0,N
1551403436.0,286046999.0,N
1551403455.8,286046999.4,N
1551403475.6,286046997.5,N
1551403495.5,286046996.8,N
1551403515.3,286046996.7,N
1551403535.2,286046999.6,N
1551403555.9,286046998.8,N
1551403575.7,286046999.4,N
1551403595.6,286046996.9,N
1551403615.4,286046997.0,N
1551403635.2,286046997.1,N
1551403655.1,286046997.9,N
1551403656.0,286046997.9,N
1551403675.8,286046997.9,N
1551403695.7,286046998.1,N
1551403715.5,286047000.6,N
1551403735.3,286046999.7,N
1551403755.2,286047002.8,N
1551403775.0,286046998.1,N
1551403775.9,286046998.1,N
1551403795.7,286046999.2,N
1551403815.6,286047001.2,N
1551403835.4,286047000.6,N
1551403855.3,286047000.8,N
1551403875.1,286047001.2,N
1551403876.0,286047001.2,N
1551403895.8,286047001.1,N
1551403915.7,286047000.0,N
1551403935.5,286047000.5,N
1551403955.3,286047001.6,N
1551403975.2,286047001.9,N
1551403995.0,286047001.4,N
1551403995.9,286047001.4,N
1551404015.8,286047002.3,N
1551404035.6,286047002.6,N
1551404055.4,286046998.6,N
1551404075.3,286047002.7,N
1551404095.1,286047002.3,N
1551404115.9,286047004.2,N
1551404135.7,286047003.1,N
1551404155.5,286047003.2,N
1551404175.4,286047003.9,N
1551404195.2,286047003.1,N
1551404215.0,286047003.5,N
1551404215.9,286047003.5,N
1551404235.8,286047003.2,N
1551404255.6,286047005.2,Y
1551404275.5,286047003.1,P
1551404295.3,286047005.1,P
1551404315.1,286047006.9,P
1551404335.9,286047008.6,Y
1551404355.7,286047003.1,P
1551404375.5,286047003.3,P
1551404395.4,286047005.2,P
1551404415.2,286047003.5,Y
1551404435.1,286047000.5,P
1551404436.0,286047000.5,N
1551404455.8,286047000.9,N
1551404475.6,286047001.1,N
1551404495.5,286046999.3,N
1551404515.3,286046998.5,N
1551404535.1,286046999.2,N
1551404555.9,286046998.3,N
1551404575.7,286046998.9,N
1551404595.6,286046996.8,N
1551404615.4,286046995.3,N
1551404635.2,286046997.1,N
1551404655.1,286046998.9,N
1551404656.0,286046998.9,N
1551404675.8,286046999.0,N
1551404695.7,286046997.1,N
1551404715.5,286046997.3,N
1551404735.3,286046997.9,N
1551404755.2,286046996.0,N
1551404775.9,286046994.5,N
1551404795.7,286046994.4,N
1551404815.6,286046996.2,N
1551404835.4,286046995.8,N
1551404855.2,286047000.4,N
1551404875.1,286047001.8,N
1551404876.0,286047001.8,N
1551404895.8,286047004.3,N
1551404915.7,286047004.4,N
1551404935.5,286047003.4,N
1551404955.3,286047005.6,N
1551404975.2,286047003.3,N
1551404995.0,286047001.3,N
1551404995.9,286047001.3,N
1551405015.8,286046999.7,N
1551405035.6,286047000.8,N
1551405055.4,286047002.5,N
1551405075.3,286047004.4,N
1551405095.1,286047004.4,N
1551405115.8,286047001.6,N
1551405135.7,286047004.1,N
1551405155.5,286047003.5,N
1551405175.4,286047002.0,N
1551405195.2,286047000.3,N
1551405215.0,286046998.1,N
1551405215.9,286046998.1,N
1551405235.8,286046997.4,N
1551405255.6,286046996.3,N
1551405275.4,286046993.4,N
1551405295.3,286046994.8,N
1551405315.1,286046994.4,N
1551405335.9,286046993.8,N
1551405355.7,286046994.6,N
1551405375.5,286046994.3,N
1551405395.4,286046993.9,N
1551405415.2,286046993.7,N
1551405435.0,286046993.8,N
1551405436.0,286046993.8,N
1551405455.8,286046994.3,N
1551405475.6,286046994.8,N
1551405495.5,286046992.3,N
1551405515.3,286046992.6,N
1551405535.1,286046991.8,N
1551405555.9,286046994.3,N
1551405575.7,286046994.6,N
1551405595.6,286046994.3,N
